Tracking 33197 objects as of 18-Feb-2026
HD Live streaming from Space Station
objects crossing your sky now

ONEWEB-0039

Track ONEWEB-0039 now!
10-day predictions
ONEWEB-0039 is classified as:


NORAD ID: 45146
Int'l Code: 2020-008R
Perigee: 1,227.7 km
Apogee: 1,230.0 km
Inclination: 87.9 °
Period: 109.9 minutes
Semi major axis: 7599 km
RCS: Unknown
Launch date: February 6, 2020
Source: United Kingdom (UK)
Launch site: TYURATAM MISSILE AND SPACE COMPLEX (TTMTR)
Your satellite tracking list
Your tracking list is empty




NASA's NSSDC Master Catalog

Two Line Element Set (TLE):
1 45146U 20008R   26049.01483130  .00000684  00000-0  19232-2 0  9998
2 45146  87.8763  60.0030 0001533  74.9860 285.1437 13.10372613292556
Source of the keplerian elements: AFSPC